Weather History for Saipan, MP

Change the Weather History Date:

Saturday, March 30, 2013

  Actual Average Record
Temperature  
Mean Temperature 80 °F -  
Max Temperature 86 °F 82 °F 88 °F (2014)
Min Temperature 75 °F 75 °F 73 °F (2012)
Cooling Degree Days 16    
Growing Degree Days 30 (Base 50)    
Moisture  
Dew Point 71 °F    
Average Humidity 74    
Maximum Humidity 94    
Minimum Humidity 57    
Precipitation  
Precipitation 0.05 in - - ()
Sea Level Pressure  
Sea Level Pressure 29.99 in    
Wind  
Wind Speed 16 mph (East)    
Max Wind Speed 23 mph    
Max Gust Speed 31 mph    
Visibility 9 miles    
Events Rain    
Averages and records for this station are not official NWS values.
T = Trace of Precipitation, MM = Missing Value Source: NWS Daily Summary

Daily Weather History Graph

Daily Weather History Graph

Search for Another Location

Airport:

Trip Planner

Search our weather history database for the weather conditions in past years. The results will help you decide how hot, cold, wet, or windy it might be!

Date:

Astronomy

Mar. 30, 2013 Rise Set
Actual Time 6:14 AM ChST 6:29 PM ChST
Civil Twilight 5:52 AM ChST 6:50 PM ChST
Nautical Twilight 5:27 AM ChST 7:15 PM ChST
Astronomical Twilight 5:02 AM ChST 7:40 PM ChST
Moon 9:17 PM ChST (3/30) 8:08 AM ChST (3/30)
Length of Visible Light 12h 57m
Length of Day
12h 14m
Waning Gibbous, 91% of the Moon is Illuminated
Mar 30
Waning Gibbous
Apr 3
Last Quarter
Apr 10
New
Apr 18
First Quarter
Apr 26
Full

Hourly Weather History & Observations

Time (ChST) Temp. Heat Index Dew Point Humidity Pressure Visibility Wind Dir Wind Speed Gust Speed Precip Events Conditions
12:54 AM 78.1 °F - 73.9 °F 87% 30.01 in 10.0 mi East 11.5 mph - 0.00 in   Mostly Cloudy
1:54 AM 79.0 °F - 72.0 °F 79% 30.00 in 10.0 mi East 13.8 mph - N/A   Mostly Cloudy
2:54 AM 78.1 °F - 72.0 °F 81% 29.99 in 10.0 mi East 15.0 mph - 0.00 in   Scattered Clouds
3:54 AM 78.1 °F - 72.0 °F 81% 29.98 in 10.0 mi East 16.1 mph 25.3 mph N/A   Scattered Clouds
4:54 AM 78.1 °F - 72.0 °F 81% 29.99 in 10.0 mi East 18.4 mph - N/A   Scattered Clouds
5:54 AM 78.1 °F - 73.0 °F 84% 30.00 in 10.0 mi East 13.8 mph - N/A   Scattered Clouds
6:54 AM 79.0 °F - 71.1 °F 77% 30.02 in 10.0 mi East 13.8 mph 24.2 mph N/A   Scattered Clouds
7:54 AM 80.1 °F 83.6 °F 71.1 °F 74% 30.05 in 10.0 mi East 15.0 mph 27.6 mph N/A   Mostly Cloudy
8:54 AM 82.9 °F 87.5 °F 71.1 °F 67% 30.06 in 10.0 mi East 18.4 mph 24.2 mph N/A   Scattered Clouds
9:01 AM 82.4 °F 86.3 °F 69.8 °F 66% 30.00 in 10.0 mi East 18.4 mph - N/A   Overcast
9:46 AM 84.2 °F 87.3 °F 68.0 °F 58% 29.99 in 10.0 mi East 20.7 mph 24.2 mph N/A   Mostly Cloudy
9:54 AM 84.9 °F 88.2 °F 68.0 °F 57% 30.05 in 10.0 mi East 18.4 mph 23.0 mph N/A   Mostly Cloudy
10:54 AM 84.9 °F 88.2 °F 68.0 °F 57% 30.04 in 10.0 mi East 17.3 mph 24.2 mph N/A   Scattered Clouds
11:54 AM 86.0 °F 90.1 °F 69.1 °F 57% 30.01 in 10.0 mi East 17.3 mph 27.6 mph N/A   Scattered Clouds
12:54 PM 84.9 °F 90.1 °F 71.1 °F 63% 29.99 in 10.0 mi East 19.6 mph 25.3 mph N/A   Scattered Clouds
1:54 PM 86.0 °F 92.2 °F 72.0 °F 63% 29.97 in 10.0 mi ENE 17.3 mph 25.3 mph N/A   Scattered Clouds
2:54 PM 84.9 °F 90.1 °F 71.1 °F 63% 29.95 in 10.0 mi East 17.3 mph - N/A   Scattered Clouds
3:54 PM 84.0 °F 89.0 °F 71.1 °F 65% 29.94 in 10.0 mi East 20.7 mph 26.5 mph N/A   Overcast
4:54 PM 82.9 °F 87.5 °F 71.1 °F 67% 29.94 in 10.0 mi ENE 17.3 mph 25.3 mph N/A   Scattered Clouds
5:54 PM 81.0 °F 85.2 °F 72.0 °F 74% 29.95 in 10.0 mi ENE 15.0 mph 24.2 mph N/A   Scattered Clouds
6:54 PM 80.1 °F 83.6 °F 71.1 °F 74% 29.96 in 10.0 mi ENE 17.3 mph 25.3 mph N/A   Mostly Cloudy
7:54 PM 79.0 °F - 72.0 °F 79% 29.97 in 10.0 mi ENE 20.7 mph 24.2 mph N/A   Mostly Cloudy
8:54 PM 79.0 °F - 70.0 °F 74% 30.00 in 10.0 mi ENE 18.4 mph - N/A   Partly Cloudy
9:19 PM 78.8 °F - 71.6 °F 78% 29.94 in 10.0 mi ENE 18.4 mph - N/A   Mostly Cloudy
9:54 PM 79.0 °F - 72.0 °F 79% 30.01 in 10.0 mi ENE 21.9 mph 25.3 mph N/A   Overcast
10:22 PM 80.6 °F 84.6 °F 71.6 °F 74% 29.95 in 5.0 mi ENE 23.0 mph 27.6 mph N/A   Haze
10:33 PM 77.0 °F - 73.4 °F 89% 29.95 in 7.0 mi East 16.1 mph - 0.03 in Rain Light Rain
10:54 PM 78.1 °F - 75.0 °F 90% 30.02 in 7.0 mi East 15.0 mph 23.0 mph 0.03 in   Mostly Cloudy
11:31 PM 78.8 °F - 73.4 °F 83% 29.95 in 10.0 mi ENE 16.1 mph 26.5 mph N/A   Overcast
11:49 PM 75.2 °F - 73.4 °F 94% 29.96 in 5.0 mi East 21.9 mph 31.1 mph 0.02 in Rain Rain
11:54 PM 75.0 °F - 72.0 °F 90% 30.02 in 5.0 mi East 18.4 mph 31.1 mph 0.02 in Rain Light Rain